Location: Newark
(35.9031°N, 139.7175°E)
Time: 07:42:03
(UTC+00:00)

SR - All Passes

Search period start: 26 May 2020 00:00
Search period end: 05 June 2020 00:00
Orbit: 581 x 874 km, 66.7° (Epoch: 25 May)

Date Brightness Start Highest point End Pass type
(mag) Time Alt. Az. Time Alt. Az. Time Alt. Az.
26 May - 05:55:54 10° S 06:00:59 38° ESE 06:05:45 10° NE daylight
26 May - 07:38:32 10° WSW 07:43:04 27° NW 07:47:21 10° N daylight
26 May - 14:41:40 10° NNE 14:43:23 12° NE 14:45:04 10° ENE visible
26 May - 16:21:36 10° NW 16:25:51 61° WSW 16:30:00 10° SSE visible
27 May - 05:07:53 10° SSE 05:11:31 18° ESE 05:15:00 10° ENE daylight
27 May - 06:47:52 10° SW 06:53:14 53° WNW 06:58:13 10° NNE daylight
27 May - 15:31:58 10° NNW 15:36:11 52° ENE 15:40:18 10° SE visible
27 May - 17:16:39 10° W 17:17:37 11° WSW 17:18:34 10° WSW visible
28 May - 05:58:01 10° SSW 06:03:32 75° ESE 06:08:39 10° NNE daylight
28 May - 07:43:05 10° W 07:46:01 15° NW 07:48:51 10° NNW daylight
28 May - 14:42:52 10° N 14:46:20 23° NE 14:49:45 10° ESE visible
28 May - 16:24:41 10° NW 16:28:16 26° WSW 16:31:49 10° SSW visible
29 May - 05:08:59 10° S 05:13:57 35° ESE 05:18:37 10° NE daylight
29 May - 06:51:23 10° WSW 06:56:01 28° NW 07:00:21 10° N daylight
29 May - 13:54:57 10° NNE 13:56:16 11° NE 13:57:34 10° ENE visible
29 May - 15:34:31 10° NNW 15:38:46 67° WSW 15:42:58 10° SSE visible
30 May - 04:21:07 10° SE 04:24:30 17° ESE 04:27:44 10° ENE daylight
30 May - 06:00:48 10° SW 06:06:11 56° WNW 06:11:10 10° NNE daylight
30 May - 14:44:56 10° NNW 14:49:06 48° ENE 14:53:11 10° SE visible
30 May - 16:29:03 10° W 16:30:35 12° WSW 16:32:07 10° SW visible
31 May - 05:11:01 10° SSW 05:16:30 70° ESE 05:21:33 10° NNE daylight
31 May - 06:55:48 10° W 06:58:55 16° NW 07:01:55 10° NNW daylight
31 May - 13:55:53 10° N 13:59:14 22° NE 14:02:31 10° ESE visible
31 May - 15:37:32 10° NW 15:41:13 29° WSW 15:44:52 10° S visible
01 Jun - 04:22:04 10° S 04:26:55 33° ESE 04:31:29 10° NE daylight
01 Jun - 06:04:14 10° WSW 06:08:56 30° NW 06:13:20 10° N daylight
01 Jun - 13:08:27 10° NE 13:09:08 10° NE 13:09:50 10° NE visible
01 Jun - 14:47:26 10° NNW 14:51:42 74° WSW 14:55:55 10° SSE visible
02 Jun - 03:34:24 10° SE 03:37:28 15° ESE 03:40:26 10° ENE daylight
02 Jun - 05:13:44 10° SW 05:19:08 60° WNW 05:24:07 10° NNE daylight
02 Jun - 13:57:54 10° NNW 14:02:01 44° ENE 14:06:04 10° SE visible
02 Jun - 15:41:37 10° WNW 15:43:33 13° WSW 15:45:28 10° SW visible
03 Jun - 04:24:02 10° SSW 04:29:27 65° ESE 04:34:28 10° NNE daylight
03 Jun - 06:08:33 10° W 06:11:50 16° NW 06:14:58 10° NNW daylight
03 Jun - 13:08:55 10° N 13:12:08 20° NE 13:15:17 10° ESE visible
03 Jun - 14:50:24 10° NW 14:54:10 31° WSW 14:57:54 10° S visible
04 Jun - 03:35:10 10° S 03:39:53 30° ESE 03:44:19 10° NE daylight
04 Jun - 05:17:06 10° WSW 05:21:51 31° WNW 05:26:18 10° N daylight
04 Jun - 14:00:21 10° NNW 14:04:38 80° WSW 14:08:52 10° SSE visible
